Buffalo, SD

9:43 PM MDT on April 30, 2017 (GMT -0600)
Buffalo

Weather History for K2WX - October, 2011

Change the Weather History Date:

Wednesday, October 19, 2011

  Actual Average Record
Temperature  
Mean Temperature 41 °F 44 °F  
Max Temperature 56 °F 56 °F 82 °F (2003)
Min Temperature 26 °F 33 °F 23 °F (2002)
Degree Days  
Heating Degree Days 24 21  
Month to date heating degree days 240 333  
Since 1 July heating degree days 426 624  
Cooling Degree Days 0 0  
Month to date cooling degree days 30 0  
Year to date cooling degree days 554 512  
Moisture  
Dew Point 25 °F    
Average Humidity 55    
Maximum Humidity 78    
Minimum Humidity 32    
Precipitation  
Precipitation 0.00 in 0.03 in 0.07 in (2008)
Month to date precipitation 0.50 0.27  
Year to date precipitation 18.17 13.49  
Sea Level Pressure  
Sea Level Pressure 30.09 in    
Wind  
Wind Speed 10 mph (SE)    
Max Wind Speed 20 mph    
Max Gust Speed 24 mph    
T = Trace of Precipitation, MM = Missing Value Source: NWS Daily Summary

Daily Weather History Graph

Daily Weather History Graph

Search for Another Location

Airport or City:

Trip Planner

Search our weather history database for the weather conditions in past years. The results will help you decide how hot, cold, wet, or windy it might be!

Date:

Astronomy

Oct. 19, 2011 Rise Set
Actual Time 7:15 AM MDT 6:01 PM MDT
Civil Twilight 6:45 AM MDT 6:31 PM MDT
Nautical Twilight 6:10 AM MDT 7:06 PM MDT
Astronomical Twilight 5:36 AM MDT 7:40 PM MDT
Moon 11:43 PM MDT (10/19) 1:55 PM MDT (10/19)
Length of Visible Light 11h 46m
Length of Day
10h 46m
Waning Gibbous, 54% of the Moon is Illuminated
Oct 19
Waning Gibbous
Oct 19
Last Quarter
Oct 26
New
Nov 2
First Quarter
Nov 10
Full

Hourly Weather History & Observations

Time (MDT) Temp. Windchill Dew Point Humidity Pressure Visibility Wind Dir Wind Speed Gust Speed Precip Events Conditions
12:56 AM 34.0 °F 31.0 °F 24.1 °F 67% 30.19 in - West 3.5 mph - N/A   Unknown
1:56 AM 33.1 °F 27.7 °F 23.0 °F 66% 30.18 in - West 5.8 mph - N/A   Unknown
2:56 AM 35.1 °F - 24.1 °F 64% 30.16 in - Calm Calm - N/A   Unknown
3:56 AM 32.0 °F 27.5 °F 23.0 °F 69% 30.16 in - SW 4.6 mph - N/A   Unknown
4:56 AM 28.9 °F 23.9 °F 23.0 °F 78% 30.17 in - East 4.6 mph - N/A   Unknown
5:56 AM 30.0 °F - 23.0 °F 75% 30.17 in - Calm Calm - N/A   Unknown
6:56 AM 28.0 °F - 23.0 °F 81% 30.17 in - Calm Calm - N/A   Unknown
7:56 AM 28.9 °F 21.1 °F 23.0 °F 78% 30.17 in - East 8.1 mph - N/A   Unknown
8:56 AM 35.1 °F 32.2 °F 26.1 °F 70% 30.17 in - SSE 3.5 mph - N/A   Unknown
9:56 AM 41.0 °F 37.1 °F 28.9 °F 62% 30.16 in - SSE 5.8 mph - N/A   Unknown
10:56 AM 48.0 °F - 28.9 °F 48% 30.12 in - SSE 11.5 mph - N/A   Unknown
11:56 AM 52.0 °F - 28.9 °F 41% 30.10 in - SE 11.5 mph - N/A   Unknown
12:56 PM 55.0 °F - 27.0 °F 34% 30.07 in - SE 13.8 mph - N/A   Unknown
1:56 PM 55.9 °F - 27.0 °F 33% 30.04 in - SE 11.5 mph - N/A   Unknown
2:56 PM 55.9 °F - 26.1 °F 32% 30.01 in - SSE 11.5 mph - N/A   Unknown
3:56 PM 55.0 °F - 26.1 °F 33% 30.01 in - SSE 15.0 mph 21.9 mph N/A   Unknown
4:56 PM 53.1 °F - 26.1 °F 35% 30.01 in - SSE 11.5 mph - N/A   Unknown
5:56 PM 48.0 °F - 27.0 °F 44% 30.01 in - ESE 13.8 mph - N/A   Unknown
6:56 PM 42.1 °F 35.7 °F 27.0 °F 55% 30.03 in - ESE 11.5 mph - N/A   Unknown
7:56 PM 39.0 °F 31.0 °F 27.0 °F 62% 30.03 in - SE 13.8 mph - N/A   Unknown
8:56 PM 37.9 °F 28.9 °F 27.0 °F 65% 30.01 in - SE 16.1 mph - N/A   Unknown
9:56 PM 37.0 °F 27.0 °F 25.0 °F 62% 30.00 in - SE 18.4 mph - N/A   Unknown
10:56 PM 35.1 °F 25.9 °F 24.1 °F 64% 29.98 in - SE 13.8 mph - N/A   Unknown
11:56 PM 34.0 °F 24.6 °F 23.0 °F 64% 29.97 in - SE 13.8 mph - N/A   Unknown